Location: Gro� Glienicke
(52.4675°N, 13.1079°E)
Time: 02:59:05
(UTC+00:00)

Cosmos 2341 Rocket - Pass Details

Date: 06 July 2020
Orbit: 968 x 1004 km, 82.9° (Epoch: 04 August)

Event Time Altitude Azimuth Distance (km) Brightness Sun altitude
Exits shadow 21:55:17 18° 167° (SSE) 2,207 5.2 -13.1°
Maximum altitude 21:59:57 59° 93° (E) 1,115 4.2 -13.3°
Drops below altitude 10° 22:06:03 10° 16° (NNE) 2,724 7.3 -13.6°
Sets 22:08:35 0° 13° (NNE) 3,675 8.2 -13.7°
